Location: *
(1.3500°S, 147.5000°W)
Time: 13:18:49
(UTC+00:00)

ISS - Pass Details

Date: 20 June 2021
Orbit: 419 x 421 km, 51.6° (Epoch: 27 July)

Event Time Altitude Azimuth Distance (km) Brightness Sun altitude
Exits shadow 13:44:19 12° 28° (NNE) 1,356 -0.6 -29.6°
Drops below altitude 10° 13:44:38 10° 29° (NNE) 1,486 -0.3 -29.5°
Sets 13:46:43 0° 32° (NNE) 2,345 0.9 -29.0°
